Weather History for Macon, GA

Change the Weather History Date:

Tuesday, February 19, 2013

  Actual Average Record
Temperature  
Mean Temperature 54 °F 51 °F  
Max Temperature 65 °F 63 °F 82 °F (1956)
Min Temperature 43 °F 39 °F 17 °F (1958)
Degree Days  
Heating Degree Days 11 14  
Month to date heating degree days 324 302  
Since 1 July heating degree days 1538 1807  
Cooling Degree Days 0 0  
Month to date cooling degree days 0 0  
Year to date cooling degree days 18 1  
Growing Degree Days 1 (Base 50)    
Moisture  
Dew Point 42 °F    
Average Humidity 69    
Maximum Humidity 100    
Minimum Humidity 38    
Precipitation  
Precipitation 0.20 in 0.17 in 2.22 in (1924)
Month to date precipitation 7.68 2.96  
Year to date precipitation 9.73 7.20  
Snow  
Snow 0.00 in 0.00 in 0.00 in (2002)
Month to date snowfall 0.0 0.0  
Since 1 July snowfall 0.0 0.5  
Snow Depth -    
Sea Level Pressure  
Sea Level Pressure 30.08 in    
Wind  
Wind Speed 7 mph (West)    
Max Wind Speed 16 mph    
Max Gust Speed 24 mph    
Visibility 8 miles    
Events Rain    
T = Trace of Precipitation, MM = Missing Value Source: NWS Daily Summary

Daily Weather History Graph

Daily Weather History Graph

Search for Another Location

Airport:

Trip Planner

Search our weather history database for the weather conditions in past years. The results will help you decide how hot, cold, wet, or windy it might be!

Date:

Astronomy

Feb. 19, 2013 Rise Set
Actual Time 7:13 AM EST 6:23 PM EST
Civil Twilight 6:48 AM EST 6:48 PM EST
Nautical Twilight 6:19 AM EST 7:17 PM EST
Astronomical Twilight 5:51 AM EST 7:46 PM EST
Moon 1:04 PM EST (2/19) 2:34 AM EST (2/19)
Length of Visible Light 12h 00m
Length of Day
11h 10m
Waxing Gibbous, 67% of the Moon is Illuminated
Feb 19
Waxing Gibbous
Feb 25
Full
Mar 4
Last Quarter
Mar 11
New
Mar 19
First Quarter

Hourly Weather History & Observations

Time (EST) Temp. Windchill Dew Point Humidity Pressure Visibility Wind Dir Wind Speed Gust Speed Precip Events Conditions
12:53 AM 44.1 °F 39.5 °F 32.0 °F 63% 30.17 in 10.0 mi SSE 8.1 mph - N/A   Clear
1:53 AM 44.1 °F 39.0 °F 35.1 °F 71% 30.14 in 10.0 mi South 9.2 mph - N/A   Clear
2:53 AM 43.0 °F 40.3 °F 36.0 °F 76% 30.13 in 10.0 mi South 4.6 mph - N/A   Clear
3:53 AM 43.0 °F 39.5 °F 36.0 °F 76% 30.09 in 10.0 mi SSE 5.8 mph - N/A   Clear
4:53 AM 44.1 °F 41.5 °F 37.0 °F 76% 30.09 in 10.0 mi SSW 4.6 mph - N/A   Clear
5:53 AM 44.1 °F 41.5 °F 37.9 °F 79% 30.07 in 10.0 mi South 4.6 mph - N/A   Overcast
6:53 AM 44.1 °F 41.5 °F 39.9 °F 85% 30.06 in 9.0 mi SSE 4.6 mph - 0.00 in Rain Light Rain
7:53 AM 44.1 °F 42.5 °F 42.1 °F 93% 30.05 in 10.0 mi SSE 3.5 mph - 0.04 in   Overcast
8:50 AM 44.6 °F 39.2 °F 42.8 °F 93% 30.09 in 7.0 mi NNW 10.4 mph - 0.01 in Rain Light Rain
8:53 AM 44.1 °F 39.0 °F 43.0 °F 96% 30.10 in 6.0 mi NW 9.2 mph - 0.01 in Rain Light Rain
9:25 AM 44.6 °F 41.4 °F 44.6 °F 100% 30.10 in 2.5 mi NNW 5.8 mph - 0.03 in Rain Light Rain
9:41 AM 44.6 °F 41.4 °F 44.6 °F 100% 30.10 in 6.0 mi NW 5.8 mph - 0.05 in Rain Light Rain
9:53 AM 44.1 °F 41.5 °F 44.1 °F 100% 30.10 in 3.0 mi WNW 4.6 mph - 0.05 in Rain Light Rain
10:39 AM 46.4 °F 41.9 °F 44.6 °F 93% 30.06 in 2.5 mi SSW 9.2 mph - 0.01 in Rain Light Rain
10:53 AM 48.0 °F - 46.9 °F 96% 30.07 in 2.5 mi SSW 11.5 mph - 0.03 in Rain Light Rain
11:06 AM 50.0 °F - 48.2 °F 94% 30.07 in 1.5 mi WSW 13.8 mph 21.9 mph 0.02 in Rain Light Rain
11:17 AM 51.8 °F - 51.8 °F 100% 30.07 in 2.0 mi SW 12.7 mph 20.7 mph 0.04 in Rain Light Rain
11:45 AM 51.8 °F - 51.8 °F 100% 30.07 in 4.0 mi SW 10.4 mph 20.7 mph 0.06 in   Overcast
11:53 AM 52.0 °F - 51.1 °F 97% 30.06 in 8.0 mi SW 10.4 mph - 0.06 in   Overcast
12:07 PM 51.8 °F - 51.8 °F 100% 30.07 in 9.0 mi WSW 8.1 mph - N/A   Overcast
12:22 PM 51.8 °F - 51.8 °F 100% 30.07 in 6.0 mi West 6.9 mph - N/A   Overcast
12:29 PM 51.8 °F - 51.8 °F 100% 30.07 in 2.5 mi WSW 9.2 mph - N/A   Overcast
12:33 PM 51.8 °F - 51.8 °F 100% 30.07 in 3.0 mi West 8.1 mph - N/A   Overcast
12:37 PM 51.8 °F - 51.8 °F 100% 30.07 in 2.5 mi SW 5.8 mph - N/A   Overcast
1:11 PM 55.4 °F - 53.6 °F 94% 30.05 in 10.0 mi West 4.6 mph - N/A   Overcast
1:27 PM 55.4 °F - 53.6 °F 94% 30.05 in 10.0 mi West 10.4 mph 18.4 mph N/A   Overcast
1:53 PM 57.0 °F - 52.0 °F 83% 30.04 in 10.0 mi WNW 11.5 mph - N/A   Overcast
2:04 PM 57.2 °F - 50.0 °F 77% 30.03 in 10.0 mi WNW 9.2 mph - N/A   Mostly Cloudy
2:53 PM 60.1 °F - 50.0 °F 69% 30.03 in 10.0 mi NW 8.1 mph - N/A   Mostly Cloudy
3:53 PM 63.0 °F - 44.1 °F 50% 30.02 in 10.0 mi WNW 17.3 mph 20.7 mph N/A   Partly Cloudy
4:53 PM 63.0 °F - 41.0 °F 45% 30.02 in 10.0 mi WNW 11.5 mph - N/A   Clear
5:53 PM 61.0 °F - 39.0 °F 44% 30.03 in 10.0 mi NW 5.8 mph - N/A   Clear
7:53 PM 54.0 °F - 28.0 °F 37% 30.08 in 10.0 mi WNW 9.2 mph - N/A   Clear
8:53 PM 52.0 °F - 27.0 °F 38% 30.10 in 10.0 mi NW 9.2 mph - N/A   Clear
9:53 PM 48.0 °F - 28.0 °F 46% 30.12 in 10.0 mi NW 4.6 mph - N/A   Clear
10:53 PM 46.0 °F 43.9 °F 23.0 °F 40% 30.14 in 10.0 mi WNW 4.6 mph - N/A   Clear
11:53 PM 44.1 °F 40.8 °F 23.0 °F 43% 30.15 in 10.0 mi NW 5.8 mph - N/A   Clear